www.pogodaiklimat.ru

Погода и климат >> Архив погоды >> Бахрейн >> Бахрейн


АРХИВ ПОГОДЫ в Бахрейне

Время (UTC), дата Ветер
(напр.,м/с)
 
Видим.   Явления Облачность Т
(С)
Тd
(С)
f
(%)
Тe
(С)
Тes
(С)
Комфортность P
(гПа)
Po
(гПа)
Тmin
(С)
Tmax
(С)
R
(мм)
R24
(мм)
S
(см)
09 15.02 ЮВ 3 12 км в посл. час дождь 9/0
[Ac As]
+21.5 +14.0 62 +24 +28 комфорт 1018.8 1018.6
12 15.02 В 6 16 км 9/0
[Ac As]
+21.5 +15.2 67 +25 +25 комфорт 1014.7 1014.5 0.0
15 15.02 ЮВ 7 16 км 3/0
[Ac trans]
+20.8 +14.3 66 +23 +23 комфорт 1014.5 1014.3
18 15.02 ЮВ 6 16 км в посл. час ливневой дождь 5/0
[Ac cast]
+19.8 +16.3 80 +22 +22 комфорт 1015.7 1015.5 +22.7
21 15.02 ЮВ 9 8000 м слаб. ливневой дождь, в посл. час гроза 9/3 1050 м
[Cb calv Ac As]
+19.0 +16.5 85 +20 +20 тепло 1013.8 1013.6
00 16.02 В 4 14 км {гроза, дождь} 10/0
[Ac trans Cs]
+19.6 +15.3 76 +22 +22 комфорт 1013.3 1013.1 2
03 16.02 В 3 12 км в посл. час дождь 9/0
[Ac As]
+18.9 +16.2 84 +20 +20 тепло 1014.3 1014.1
06 16.02 ЮВ 6 12 км {гроза, дождь} 9/3 900 м
[Sc diur, vesp Ac trans Ci sp]
+21.3 +16.6 75 +25 +26 комфорт 1015.4 1015.2 +18.8
12 16.02 СЗ 6 12 км 9/0
[Ac cast]
+22.7 +15.7 65 +27 +28 душно 1013.0 1012.8 0.6
15 16.02 С 4 12 км 10/0
[Ac cast]
+21.2 +18.8 86 +26 +26 душно 1014.1 1013.9
18 16.02 З 3 7000 м мгла 5/0
[Ac trans]
+20.5 +17.6 83 +24 +24 комфорт 1016.1 1015.9 +25.2
21 16.02 СЗ 9 9000 м мгла 4/0
[Ci sp]
+19.3 +15.8 80 +20 +20 тепло 1016.6 1016.4
00 17.02 С 8 12 км 4/4 750 м
[Sc]
+18.8 +13.7 72 +19 +19 тепло 1017.0 1016.8
03 17.02 С 7 12 км 6/6 750 м
[Sc]
+18.0 +12.7 71 +17 +17 по сезону 1018.2 1018.0
06 17.02 СЗ 9 16 км 8/1 750 м
[Sc Cs]
+19.2 +11.1 59 +19 +20 тепло 1020.1 1019.9 +17.8
09 17.02 СЗ 10 16 км 8/0
[Cs]
+20.1 +9.5 50 +21 +21 комфорт 1019.3 1019.1
12 17.02 СЗ 10 16 км 4/0
[Cs]
+19.8 +8.3 47 +20 +20 по сезону 1017.4 1017.2
15 17.02 СЗ 8 16 км 3/3 600 м
[Sc]
+17.7 +8.1 53 +17 +17 по сезону 1017.9 1017.7
18 17.02 СЗ 7 14 км ясно +17.3 +7.2 51 +16 +16 по сезону 1018.5 1018.3 +20.6
21 17.02 СЗ 7 16 км ясно +17.4 +8.6 56 +17 +17 по сезону 1017.9 1017.7
00 18.02 СЗ 7 16 км ясно +17.7 +8.6 55 +17 +17 тепло 1017.0 1016.8
03 18.02 СЗ 5 10 км мгла 3/3 750 м
[Sc]
+16.5 +12.1 75 +16 +16 по сезону 1017.6 1017.4
06 18.02 СЗ 7 12 км 3/1 900 м
[Sc Ci fib]
+18.0 +12.3 69 +17 +19 по сезону 1018.4 1018.2 +16.1
09 18.02 СЗ 8 12 км 4/1 900 м
[Sc Ci fib]
+20.1 +8.6 47 +21 +23 комфорт 1016.1 1015.9
12 18.02 СЗ 8 12 км 8/1 900 м
[Sc Ci sp]
+20.2 +8.7 48 +21 +22 комфорт 1014.0 1013.8
15 18.02 СЗ 6 14 км 5/3 900 м
[Sc Ci sp]
+18.5 +9.4 55 +18 +18 по сезону 1013.4 1013.2
18 18.02 СЗ 6 14 км 5/0
[Ac trans]
+18.1 +9.3 56 +18 +18 по сезону 1013.7 1013.5 +21.0
21 18.02 С 4 16 км 4/0
[Ac trans]
+17.3 +9.3 59 +17 +17 по сезону 1012.4 1012.2
00 19.02 СЗ 4 16 км 6/0
[Ac cast]
+17.6 +9.3 58 +17 +17 тепло 1011.7 1011.5
03 19.02 С 4 16 км 8/0
[Ac cast]
+17.9 +8.6 54 +18 +18 тепло 1011.4 1011.2
06 19.02 С 5 18 км 4/0
[Ac trans]
+19.4 +9.4 52 +20 +23 тепло 1012.4 1012.2 +17.5
09 19.02 С 6 16 км 5/0
[Ac und]
+20.5 +9.3 49 +22 +25 комфорт 1012.4 1012.2
12 19.02 С 10 12 км 4/0
[Ac trans]
+19.8 +9.2 50 +20 +20 по сезону 1011.7 1011.5
15 19.02 СЗ 10 16 км 8/4 900 м
[Sc Ac trans]
+18.2 +8.6 53 +17 +17 по сезону 1014.1 1013.9
18 19.02 СЗ 10 16 км 3/0
[Ac trans]
+17.8 +8.5 54 +17 +17 по сезону 1017.2 1017.0 +21.1
21 19.02 СЗ 10 16 км 5/5 1200 м
[Sc]
+17.5 +8.2 54 +16 +16 по сезону 1017.7 1017.5
00 20.02 З 6 16 км 4/4 1200 м
[Sc]
+16.0 +9.7 66 +15 +15 по сезону 1017.6 1017.4
03 20.02 СЗ 9 16 км 3/3 900 м
[Sc]
+15.6 +10.6 72 +14 +14 прохладно 1018.2 1018.0
06 20.02 З 7 16 км 3/3 900 м
[Sc]
+16.9 +9.9 63 +16 +18 по сезону 1020.7 1020.5 +15.4
09 20.02 СЗ 9 14 км 3/3 900 м
[Sc]
+19.4 +8.8 50 +19 +21 по сезону 1020.5 1020.3
12 20.02 СЗ 9 18 км 1/1 900 м
[Sc]
+19.5 +7.7 46 +19 +20 по сезону 1019.3 1019.1
15 20.02 СЗ 8 20 км ясно +17.5 +7.4 51 +16 +16 прохладно 1019.4 1019.2
18 20.02 СЗ 5 18 км ясно +17.5 +6.2 47 +17 +17 по сезону 1020.7 1020.5 +19.9
21 20.02 СЗ 5 16 км ясно +16.7 +7.4 54 +16 +16 по сезону 1020.7 1020.5
00 21.02 З 3 16 км ясно +16.0 +9.9 67 +16 +16 по сезону 1020.5 1020.3
03 21.02 З 2 16 км ясно +15.3 +10.1 71 +15 +15 по сезону 1021.3 1021.1
06 21.02 З 4 20 км ясно +18.3 +8.7 53 +18 +24 по сезону 1023.3 1023.1 +15.2
09 21.02 СЗ 4 18 км 4/0
[Ac trans]
+20.5 +3.8 33 +21 +28 комфорт 1021.9 1021.7
12 21.02 С 5 16 км 6/0
[Cs]
+20.9 +1.4 27 +21 +23 комфорт 1020.5 1020.3
15 21.02 С 3 14 км 8/0
[Cs]
+18.6 +6.6 45 +19 +19 по сезону 1020.3 1020.1
18 21.02 СВ 2 12 км 5/0
[Ci sp]
+17.9 +9.1 56 +18 +18 по сезону 1021.5 1021.3 +21.2
21 21.02 штиль 0 12 км 10/0
[Cs]
+17.4 +9.9 61 +17 +17 по сезону 1020.8 1020.6
00 22.02 штиль 0 12 км 10/0
[Ac trans Cs]
+16.9 +9.7 63 +17 +17 по сезону 1019.8 1019.6
03 22.02 нст 1 12 км 9/0
[Ac As]
+17.1 +10.1 63 +19 +19 тепло 1019.7 1019.5
06 22.02 нст 1 12 км 9/0
[Ac As]
+18.2 +10.9 62 +20 +23 тепло 1021.5 1021.3 +16.7

 

Местоположение метеостанции Бахрейн (Бахрейн): широта 26.27 долгота 50.65 высота над уровнем моря 2 м.

В архиве по умолчанию представлена погода в Бахрейне за последнюю неделю. Архивные данные за месяц целиком и за предыдущие месяцы, начиная с января 2011 года, Вы можете получить, выбрав интересующий диапазон дат из раскрывающегося списка и нажав кнопку "Ввод!".


*Определитесь, кто Вы:
робот инопланетянин человек

Внимание! Время в таблицах - всемирное. Для получения местного времени необходимо прибавить поправку, которая равна 4 ч.

Смотрите также архив погоды в соседних городах и на ближайших метеорологических станциях:

Погода в Дахране (Саудовская Аравия) (48 км)
Погода в Аэропорту Король Фахд (Саудовская Аравия) (85 км)
Погода в Духане (Катар) (97 км)
Погода в Дохе (Катар) (146 км)
Погода в Аэропорту Хамад (Катар) (147 км)
Погода в Аль-Ахсе (Саудовская Аравия) (159 км)
Погода в Абу Самба (Катар) (170 км)
Погода в Бендер-Дейере (Иран) (215 км)
Погода в Бушире (Иран) (299 км)
Погода в Бушир аэропорту (Иран) (302 км)

Пояснения к столбцам:

Ветер - указаны скорость ветра в м/с - средняя за 10 мин, порывы в срок и между сроками (в фигурных скобках) и направление, откуда дует ветер: С - северный, СВ - северо-восточный, В - восточный, ЮВ - юго-восточный, Ю - южный, ЮЗ - юго-западный, З - западный, СЗ - северо-западный.
Видимость - горизонтальная дальность видимости в метрах или километрах. При видимости от 1 до 10 км при отсутствии осадков обычно наблюдается дымка, при ухудшении видимости до 1 км и менее - туман. В сухую погоду видимость может ухудшаться дымом, пылью или мглою.
Явления - указаны атмосферные явления, наблюдавшиеся в срок или в последний час перед сроком; фигурными скобками обозначены явления, наблюдавшиеся между сроками (за 1-3 часа до срока); квадратными скобками обозначены град или гололедные отложения с указанием их диаметра в мм.
Облачность - указаны через наклонную черту общая и нижняя облачность в баллах и высота нижней границы облаков в метрах; квадратными скобками обозначены формы облаков: Ci - перистые, Cs - перисто-слоистые, Cc - перисто-кучевые, Ac - высококучевые, As - высокослоистые, Sc - слоисто-кучевые, Ns - слоисто-дождевые, Cu - кучевые, Cb - кучево-дождевые. Подробнее классификацию облаков см. в Атласе облаков (PDF).
T - Температура воздуха - температура, измеренная на высоте 2 м над землей.
Td - Температура точки росы - температура, при понижении до которой содержащийся в воздухе водяной пар достигнет насыщения.
f - Относительная влажность воздуха - влажноcть воздуха, измеренная на высоте 2 м над землей.
Te - Эффективная температура - температура, которую ощущает одетый по сезону человек в тени. Характеристика душности погоды. При расчете учитывается влияние влажности воздуха и скорости ветра на теплоощущения человека.
Tes - Эффективная температура на солнце - температура, которую ощущает человек, с поправкой на солнечный нагрев. Характеристика знойности погоды. Зависит от высоты солнца над горизонтом, облачности и скорости ветра. Ночью, в пасмурную погоду, а также при ветре 12 м/с и более поправка равна нулю.
P - Атмосферное давление - приведенное к уровню моря атмосферное давление.
Po - Атмосферное давление - измеренное на уровне метеостанции атмосферное давление.
Tmin - Минимальная температура - минимум температуры воздуха на высоте 2 м над землей.
Tmax - Максимальная температура - максимум температуры воздуха на высоте 2 м над землей.
R - Количество осадков - Количество выпавших осадков за период времени, мм. При наведении курсора мыши на число - период времени, за который выпало указанное количество осадков.
R24 - Количество осадков - Количество выпавших осадков за 24 часа, мм.
S - Снежный покров - Высота снежного покрова, см. При наведении курсора мыши на число - состояние снежного покрова и степень покрытия местности в баллах.